Overview Statistics Trail Chart Weather Telemetry Raw packets
 

This is the latest recevied weather packets stored in our database for station/object OE5MMP-13. If no packets are shown the sender has not sent any weather packets the latest 10 day(s).

<< 28 29 30 31 32 33 34 >>
Time Temp. Humidity Pressure Rain* Wind** Luminosity Snow
1788257607 20.56° C 59% 1022.8 hPa 0 mm - 827 W/m² -
1788257007 20.56° C 59% 1022.9 hPa 0 mm - 819 W/m² -
1788256407 20.56° C 60% 1022.8 hPa 0 mm - 144 W/m² -
1788255807 20.56° C 60% 1022.8 hPa 0 mm - 759 W/m² -
1788255220 20.56° C 59% 1022.7 hPa 0 mm - 784 W/m² -
1788254607 20.56° C 59% 1022.7 hPa 0 mm - 163 W/m² -
1788254007 20° C 61% 1022.9 hPa 0 mm - 827 W/m² -
1788253407 20° C 61% 1023 hPa 0 mm - 686 W/m² -
1788252807 20° C 60% 1023.1 hPa 0 mm - 658 W/m² -
1788252207 20° C 61% 1022.8 hPa 0 mm - 626 W/m² -
1788251607 20° C 61% 1022.8 hPa 0 mm - 606 W/m² -
1788251007 19.44° C 62% 1022.7 hPa 0 mm - 586 W/m² -
1788250407 19.44° C 63% 1022.8 hPa 0 mm - 563 W/m² -
1788249807 19.44° C 61% 1022.7 hPa 0 mm - 543 W/m² -
1788249207 19.44° C 61% 1022.6 hPa 0 mm - 483 W/m² -
1788248607 19.44° C 62% 1022.5 hPa 0 mm - 533 W/m² -
1788248006 19.44° C 64% 1022.6 hPa 0 mm - 476 W/m² -
1788247411 18.89° C 64% 1022.3 hPa 0 mm - 421 W/m² -
1788246811 18.89° C 63% 1022.3 hPa 0 mm - 424 W/m² -
1788246211 18.89° C 64% 1022.3 hPa 0 mm - 380 W/m² -
1788245611 18.33° C 64% 1022.3 hPa 0 mm - 373 W/m² -
1788245011 18.33° C 64% 1022.3 hPa 0 mm - 343 W/m² -
1788244411 18.33° C 66% 1022.4 hPa 0 mm - 310 W/m² -
1788243811 17.78° C 67% 1022.2 hPa 0 mm - 281 W/m² -
1788243211 17.78° C 68% 1022.3 hPa 0 mm - 250 W/m² -

* Rain latest hour (hover to see other rain measurements)
** Current wind speed in m/s (hover to see current wind gust speed)